Hourly Data Report for October 21, 2015

All times are specified in Local Standard Time (LST). Add 1 hour to adjust for Daylight Saving Time where and when it is observed.

MONCTON INTL A
NEW BRUNSWICK

46°06'44.000" N
64°40'43.000" W
70.70 m
8103201
71705
YQM

Download Data

Hourly Data (October 2015)
Hourly Data Report for October 21, 2015
Temp Definition
°C
Dew Point Temp Definition
°C
Rel Hum Definition
%
Wind Dir Definition
10's deg

Wind Spd Definition
km/h
Visibility Definition
km
Stn Press Definition
kPa
Hmdx Definition


Wind Chill Definition


Weather Definition


TIME
00:00 Legend Double Dagger 5.1 -1.8 61 28 15 24.1 100.91     LegendNANA
01:00 Legend Double Dagger 4.5 -3.3 57 28 15 24.1 100.98     LegendNANA
02:00 Legend Double Dagger 3.8 -5.7 50 28 20 24.1 101.05     Clear
03:00 Legend Double Dagger 2.5 -4.9 58 27 17 24.1 101.09     LegendNANA
04:00 Legend Double Dagger 1.5 -5.0 62 27 22 24.1 101.15     LegendNANA
05:00 Legend Double Dagger 0.3 -5.9 63 23 14 24.1 101.24     Clear
06:00 Legend Double Dagger -0.7 -4.8 74 23 16 24.1 101.31   -5 LegendNANA
07:00 Legend Double Dagger -1.3 -5.2 75 22 16 24.1 101.40   -6 LegendNANA
08:00 Legend Double Dagger 1.0 -5.3 63 23 16 24.1 101.48     Clear
09:00 Legend Double Dagger 3.3 -5.6 52 27 24 24.1 101.51     LegendNANA
10:00 Legend Double Dagger 4.6 -5.5 48 26 23 24.1 101.54     LegendNANA
11:00 Legend Double Dagger 6.1 -4.9 45 27 22 24.1 101.53     Mainly Clear
12:00 Legend Double Dagger 7.0 -6.7 37 27 25 24.1 101.53     LegendNANA
13:00 Legend Double Dagger 8.1 -5.7 37 29 20 24.1 101.50     LegendNANA
14:00 Legend Double Dagger 8.3 -5.9 36 26 24 24.1 101.53     Mainly Clear
15:00 Legend Double Dagger 8.4 -6.2 35 27 21 24.1 101.57     LegendNANA
16:00 Legend Double Dagger 8.1 -6.5 35 26 26 24.1 101.62     LegendNANA
17:00 Legend Double Dagger 6.6 -5.7 41 29 17 24.1 101.70     Mainly Clear
18:00 Legend Double Dagger 4.7 -5.7 47 28 7 24.1 101.79     LegendNANA
19:00 Legend Double Dagger 3.1 -5.3 54 27 12 24.1 101.87     LegendNANA
20:00 Legend Double Dagger 3.1 -5.3 54 28 7 24.1 101.93     Clear
21:00 Legend Double Dagger 1.9 -5.3 59 29 12 24.1 101.97     LegendNANA
22:00 Legend Double Dagger 1.1 -4.4 67 21 8 24.1 102.02     LegendNANA
23:00 Legend Double Dagger 0.4 -4.8 68 20 12 24.1 102.02     Clear

Notes on Data Quality.

Legend

  • E = Estimated
  • M = Missing
  • NA = Not Available
  • ‡ = Partner data that is not subject to review by the National Climate Archives
Date modified: